ARIANE 2 R/B, 19773

Orbit data source: Space-Track

ARIANE 2 R/B, 19773 is space debris in HEO originally from a launch on Fri, 27 Jan 1989 UTC launched from the French Guiana (FRGUI). Debris objects in space refer to the collection of defunct objects orbiting the Earth. Examples of debris include non-operational satellites, rocket bodies, and fragments generated from explosions, collisions, or faulty payload assembly.

Loading next visibility...
Identifier
19773, 1989-006B
Orbit
HEO
Country
Flag of FRFR
Related business
Manufacturer
Ae/LesM
Mission
Spacecraft
Bus & Motor
ARIANE H10, Unknown motor
Mass
1,820 kg wet, 1,820 kg dry
Launch date (UTC)
1989-01-27 (37 years ago)
Launch vehicle
Unknown
Launch site
French Guiana (FRGUI)
Object type
Payload
Rocket body
Debris
Shape & HBR
Cyl, 5.9 m
Radar Cross Section
26.751 m², Large (>1 m²)

Expand to show TLE details & history
Last TLE update: 21 hours ago

TLE from 21 hours ago
0 ARIANE 2 R/B
1 19773U 89006B   26104.04878908 -.00000018  00000-0  15281-3 0  9997
2 19773   8.3288  74.7748 7153955  76.6541 348.3996  2.29253850309199
Epoch: 2026-04-14T01:10Z
TLE epoch observation values (Epoch: 2026-04-14T01:10:15.376Z)
Latitude
0.00003°
Longitude
-144.97798°
Altitude
3,806.705 km
Speed
7.865 km/s
True Right ascension
04h 59m 16s
True Declination
0° 00' 00"
Sunlit
Object was in daylight at epoch
Visualization orbit readout
Latitude
Unknown
Longitude
Unknown
Altitude
Unknown
Speed
Unknown
Apparent Right ascension
Unknown
Apparent Declination
Unknown
Sunlit
N/A
Visualization observer readout
Local Sidereal Time
04:22:25
Azimuth
Unknown
Elevation
Unknown
Doppler factor
Unknown
Orbital elements
Apogee altitude
35,306.941 km
Perigee altitude
537.913 km
Semi-major axis
24,300.564 km
Eccentricity
0.7154
Inclination
8.3288°
RAAN
74.7748°
Arg. of periapsis
76.6541°
True anomaly
284.06514°
Mean anomaly
348.3996°
Eccentric anomaly
324.73296°
Mean motion
0.57295 °/min
Orbital period
628.32 mins
BSTAR
0.00015281
Loading maneuver chart data...
Computing Atmospheric mass density...
Loading historical data...
Loading historical data...
Loading historical data...
Loading historical data...
Loading historical data...
Loading historical data...
Loading historical data...

Documentation

Showing up to 5 results
|